Time,TemperatureF,DewpointF,PressureIn,WindDirection,WindDirectionDegrees,WindSpeedMPH,WindSpeedGustMPH,Humidity,HourlyPrecipIn,Conditions,Clouds,dailyrainin,SoftwareType,DateUTC
2013-08-24 00:01:00,52.8,50.5,30.13,NNW,327,0.0,0.0,92,0.00,,,0.00,Wunderground v.1.15,2013-08-24 04:01:00,
2013-08-24 00:07:00,52.6,50.6,30.13,NNW,327,0.0,0.0,93,0.00,,,0.00,Wunderground v.1.15,2013-08-24 04:07:00,
2013-08-24 00:08:00,52.6,50.3,30.13,NNW,327,0.0,0.0,92,0.00,,,0.00,Wunderground v.1.15,2013-08-24 04:08:00,
2013-08-24 00:10:00,52.5,50.2,30.13,NNW,327,0.0,0.0,92,0.00,,,0.00,Wunderground v.1.15,2013-08-24 04:10:00,
2013-08-24 00:16:00,52.3,50.3,30.13,NNW,327,0.0,0.0,93,0.00,,,0.00,Wunderground v.1.15,2013-08-24 04:16:00,
2013-08-24 00:22:00,52.3,50.3,30.13,NNW,327,0.0,0.0,93,0.00,,,0.00,Wunderground v.1.15,2013-08-24 04:22:00,
2013-08-24 00:28:00,52.0,50.0,30.14,NNW,327,0.0,0.0,93,0.00,,,0.00,Wunderground v.1.15,2013-08-24 04:28:00,
2013-08-24 00:34:00,51.9,50.2,30.14,NNW,327,0.0,0.0,94,0.00,,,0.00,Wunderground v.1.15,2013-08-24 04:34:00,
2013-08-24 00:41:00,51.6,49.9,30.14,NNW,327,0.0,0.0,94,0.00,,,0.00,Wunderground v.1.15,2013-08-24 04:41:00,
2013-08-24 00:46:00,51.3,49.6,30.14,NNW,327,0.0,0.0,94,0.00,,,0.00,Wunderground v.1.15,2013-08-24 04:46:00,
2013-08-24 00:52:00,51.1,49.7,30.14,NNW,327,0.0,0.0,95,0.00,,,0.00,Wunderground v.1.15,2013-08-24 04:52:00,
2013-08-24 00:57:00,51.1,49.7,30.15,NNW,327,0.0,0.0,95,0.00,,,0.00,Wunderground v.1.15,2013-08-24 04:57:00,
2013-08-24 01:02:00,51.0,49.6,30.15,NNW,327,0.0,0.0,95,0.00,,,0.00,Wunderground v.1.15,2013-08-24 05:02:00,
2013-08-24 01:08:00,51.0,49.6,30.15,NNW,327,0.0,0.0,95,0.00,,,0.00,Wunderground v.1.15,2013-08-24 05:08:00,
2013-08-24 01:14:00,50.8,49.7,30.15,NNW,327,0.0,0.0,96,0.00,,,0.00,Wunderground v.1.15,2013-08-24 05:14:00,
2013-08-24 01:20:00,50.5,49.1,30.15,NNW,327,0.0,0.0,95,0.00,,,0.00,Wunderground v.1.15,2013-08-24 05:20:00,
2013-08-24 01:26:00,50.4,49.3,30.15,NNW,327,0.0,0.0,96,0.00,,,0.00,Wunderground v.1.15,2013-08-24 05:26:00,
2013-08-24 01:31:00,50.4,49.3,30.15,NNW,327,0.0,0.0,96,0.00,,,0.00,Wunderground v.1.15,2013-08-24 05:31:00,
2013-08-24 01:37:00,50.2,49.1,30.15,NNW,327,0.0,0.0,96,0.00,,,0.00,Wunderground v.1.15,2013-08-24 05:37:00,
2013-08-24 01:42:00,50.1,49.0,30.16,NNW,327,0.0,0.0,96,0.00,,,0.00,Wunderground v.1.15,2013-08-24 05:42:00,
2013-08-24 01:48:00,49.9,48.8,30.16,NNW,327,0.0,0.0,96,0.00,,,0.00,Wunderground v.1.15,2013-08-24 05:48:00,
2013-08-24 01:54:00,49.8,48.7,30.16,NNW,327,0.0,0.0,96,0.00,,,0.00,Wunderground v.1.15,2013-08-24 05:54:00,
2013-08-24 01:59:00,49.6,48.5,30.17,NNW,327,0.0,0.0,96,0.00,,,0.00,Wunderground v.1.15,2013-08-24 05:59:00,
2013-08-24 02:04:00,49.5,48.4,30.17,NNW,327,0.0,0.0,96,0.00,,,0.00,Wunderground v.1.15,2013-08-24 06:04:00,
2013-08-24 02:09:00,49.6,48.5,30.17,NNW,327,0.0,0.0,96,0.00,,,0.00,Wunderground v.1.15,2013-08-24 06:09:00,
2013-08-24 02:14:00,49.8,48.7,30.17,NNW,327,0.0,0.0,96,0.00,,,0.00,Wunderground v.1.15,2013-08-24 06:14:00,
2013-08-24 02:19:00,49.6,48.5,30.17,NNW,327,0.0,0.0,96,0.00,,,0.00,Wunderground v.1.15,2013-08-24 06:19:00,
2013-08-24 02:24:00,49.5,48.4,30.17,NNW,327,0.0,0.0,96,0.00,,,0.00,Wunderground v.1.15,2013-08-24 06:24:00,
2013-08-24 02:29:00,49.4,48.3,30.17,NNW,327,0.0,0.0,96,0.00,,,0.00,Wunderground v.1.15,2013-08-24 06:29:00,
2013-08-24 02:34:00,49.1,48.0,30.17,NNW,327,0.0,0.0,96,0.00,,,0.00,Wunderground v.1.15,2013-08-24 06:34:00,
2013-08-24 02:39:00,49.1,48.3,30.17,NNW,327,0.0,0.0,97,0.00,,,0.00,Wunderground v.1.15,2013-08-24 06:39:00,
2013-08-24 02:44:00,48.9,48.1,30.18,NNW,327,0.0,0.0,97,0.00,,,0.00,Wunderground v.1.15,2013-08-24 06:44:00,
2013-08-24 02:49:00,48.8,48.0,30.18,NNW,327,0.0,0.0,97,0.00,,,0.00,Wunderground v.1.15,2013-08-24 06:49:00,
2013-08-24 02:54:00,48.6,47.8,30.18,NNW,327,0.0,0.0,97,0.00,,,0.00,Wunderground v.1.15,2013-08-24 06:54:00,
2013-08-24 03:01:00,48.5,47.7,30.18,NNW,327,0.0,0.0,97,0.00,,,0.00,Wunderground v.1.15,2013-08-24 07:01:00,
2013-08-24 03:07:00,48.3,47.5,30.18,NNW,327,0.0,0.0,97,0.00,,,0.00,Wunderground v.1.15,2013-08-24 07:07:00,
2013-08-24 03:12:00,48.2,47.4,30.19,NNW,327,0.0,0.0,97,0.00,,,0.00,Wunderground v.1.15,2013-08-24 07:12:00,
2013-08-24 03:17:00,48.2,47.7,30.19,NNW,327,0.0,0.0,98,0.00,,,0.00,Wunderground v.1.15,2013-08-24 07:17:00,
2013-08-24 03:22:00,48.2,47.7,30.19,NNW,327,0.0,0.0,98,0.00,,,0.00,Wunderground v.1.15,2013-08-24 07:22:00,
2013-08-24 03:27:00,48.2,47.7,30.20,NNW,327,0.0,0.0,98,0.00,,,0.00,Wunderground v.1.15,2013-08-24 07:27:00,
2013-08-24 03:32:00,48.2,47.7,30.20,NNW,327,0.0,0.0,98,0.00,,,0.00,Wunderground v.1.15,2013-08-24 07:32:00,
2013-08-24 03:37:00,48.2,47.7,30.20,NNW,327,0.0,0.0,98,0.00,,,0.00,Wunderground v.1.15,2013-08-24 07:37:00,
2013-08-24 03:42:00,48.0,47.5,30.20,NNW,327,0.0,0.0,98,0.00,,,0.00,Wunderground v.1.15,2013-08-24 07:42:00,
2013-08-24 03:47:00,48.0,47.5,30.20,NNW,327,0.0,0.0,98,0.00,,,0.00,Wunderground v.1.15,2013-08-24 07:47:00,
2013-08-24 03:52:00,48.0,47.5,30.20,NNW,327,0.0,0.0,98,0.00,,,0.00,Wunderground v.1.15,2013-08-24 07:52:00,
2013-08-24 03:58:00,47.9,47.4,30.20,NNW,327,0.0,0.0,98,0.00,,,0.00,Wunderground v.1.15,2013-08-24 07:58:00,
2013-08-24 04:03:00,48.0,47.5,30.20,NNW,327,0.0,0.0,98,0.00,,,0.00,Wunderground v.1.15,2013-08-24 08:03:00,
2013-08-24 04:08:00,48.0,47.7,30.20,NNW,327,0.0,0.0,99,0.00,,,0.00,Wunderground v.1.15,2013-08-24 08:08:00,
2013-08-24 04:12:00,48.0,47.5,30.20,NNW,327,0.0,0.0,98,0.00,,,0.00,Wunderground v.1.15,2013-08-24 08:12:00,
2013-08-24 04:17:00,48.0,47.7,30.20,NNW,327,0.0,0.0,99,0.00,,,0.00,Wunderground v.1.15,2013-08-24 08:17:00,
2013-08-24 04:23:00,48.0,47.7,30.20,NNW,327,0.0,0.0,99,0.00,,,0.00,Wunderground v.1.15,2013-08-24 08:23:00,
2013-08-24 04:28:00,47.9,47.6,30.21,NNW,327,0.0,0.0,99,0.00,,,0.00,Wunderground v.1.15,2013-08-24 08:28:00,
2013-08-24 04:33:00,47.9,47.6,30.21,NNW,327,0.0,0.0,99,0.00,,,0.00,Wunderground v.1.15,2013-08-24 08:33:00,
2013-08-24 04:38:00,47.9,47.6,30.21,NNW,327,0.0,0.0,99,0.00,,,0.00,Wunderground v.1.15,2013-08-24 08:38:00,
2013-08-24 04:43:00,47.9,47.4,30.22,NNW,327,0.0,0.0,98,0.00,,,0.00,Wunderground v.1.15,2013-08-24 08:43:00,
2013-08-24 04:48:00,47.9,47.4,30.22,NNW,327,0.0,0.0,98,0.00,,,0.00,Wunderground v.1.15,2013-08-24 08:48:00,
2013-08-24 04:53:00,47.9,47.4,30.22,NNW,327,0.0,0.0,98,0.00,,,0.00,Wunderground v.1.15,2013-08-24 08:53:00,
2013-08-24 04:58:00,48.0,47.5,30.22,NNW,327,0.0,0.0,98,0.00,,,0.00,Wunderground v.1.15,2013-08-24 08:58:00,
2013-08-24 05:03:00,48.0,47.5,30.22,NNW,327,0.0,0.0,98,0.00,,,0.00,Wunderground v.1.15,2013-08-24 09:03:00,
2013-08-24 05:08:00,48.0,47.5,30.22,NNW,327,0.0,0.0,98,0.00,,,0.00,Wunderground v.1.15,2013-08-24 09:08:00,
2013-08-24 05:13:00,48.0,47.5,30.23,NNW,327,0.0,0.0,98,0.00,,,0.00,Wunderground v.1.15,2013-08-24 09:13:00,
2013-08-24 05:18:00,48.0,47.5,30.23,NNW,327,0.0,0.0,98,0.00,,,0.00,Wunderground v.1.15,2013-08-24 09:18:00,
2013-08-24 05:23:00,48.2,47.9,30.23,NNW,327,0.0,0.0,99,0.00,,,0.00,Wunderground v.1.15,2013-08-24 09:23:00,
2013-08-24 05:28:00,48.0,47.5,30.23,NNW,327,0.0,0.0,98,0.00,,,0.00,Wunderground v.1.15,2013-08-24 09:28:00,
2013-08-24 05:33:00,47.7,47.2,30.23,NNW,327,0.0,0.0,98,0.00,,,0.00,Wunderground v.1.15,2013-08-24 09:33:00,
2013-08-24 05:38:00,47.6,47.1,30.23,NNW,327,0.0,0.0,98,0.00,,,0.00,Wunderground v.1.15,2013-08-24 09:38:00,
2013-08-24 05:43:00,47.4,46.9,30.24,NNW,327,0.0,0.0,98,0.00,,,0.00,Wunderground v.1.15,2013-08-24 09:43:00,
2013-08-24 05:48:00,47.4,46.9,30.24,NNW,327,0.0,0.0,98,0.00,,,0.00,Wunderground v.1.15,2013-08-24 09:48:00,
2013-08-24 05:53:00,47.3,46.8,30.24,NNW,327,0.0,0.0,98,0.00,,,0.00,Wunderground v.1.15,2013-08-24 09:53:00,
2013-08-24 05:58:00,47.3,46.8,30.25,NNW,327,0.0,0.0,98,0.00,,,0.00,Wunderground v.1.15,2013-08-24 09:58:00,
2013-08-24 06:03:00,47.4,46.9,30.25,NNW,327,0.0,0.0,98,0.00,,,0.00,Wunderground v.1.15,2013-08-24 10:03:00,
2013-08-24 06:08:00,47.1,46.3,30.25,NNW,327,0.0,0.0,97,0.00,,,0.00,Wunderground v.1.15,2013-08-24 10:08:00,
2013-08-24 06:13:00,46.8,46.0,30.26,NNW,327,0.0,0.0,97,0.00,,,0.00,Wunderground v.1.15,2013-08-24 10:13:00,
2013-08-24 06:18:00,46.5,45.7,30.26,NNW,327,0.0,0.0,97,0.00,,,0.00,Wunderground v.1.15,2013-08-24 10:18:00,
2013-08-24 06:23:00,46.7,46.2,30.26,NNW,327,0.0,0.0,98,0.00,,,0.00,Wunderground v.1.15,2013-08-24 10:23:00,
2013-08-24 06:28:00,46.5,46.0,30.27,NNW,327,0.0,0.0,98,0.00,,,0.00,Wunderground v.1.15,2013-08-24 10:28:00,
2013-08-24 06:33:00,46.5,46.0,30.27,NNW,327,0.0,0.0,98,0.00,,,0.00,Wunderground v.1.15,2013-08-24 10:33:00,
2013-08-24 06:38:00,46.5,46.0,30.27,NNW,327,0.0,0.0,98,0.00,,,0.00,Wunderground v.1.15,2013-08-24 10:38:00,
2013-08-24 06:43:00,46.8,46.3,30.27,NNW,327,0.0,0.0,98,0.00,,,0.00,Wunderground v.1.15,2013-08-24 10:43:00,
2013-08-24 06:48:00,46.7,46.2,30.27,NNW,327,0.0,0.0,98,0.00,,,0.00,Wunderground v.1.15,2013-08-24 10:48:00,
2013-08-24 06:54:00,47.0,46.5,30.27,NNW,327,0.0,0.0,98,0.00,,,0.00,Wunderground v.1.15,2013-08-24 10:54:00,
2013-08-24 06:59:00,47.1,46.6,30.28,NNW,327,0.0,0.0,98,0.00,,,0.00,Wunderground v.1.15,2013-08-24 10:59:00,
2013-08-24 07:04:00,47.3,46.8,30.28,NNW,327,0.0,0.0,98,0.00,,,0.00,Wunderground v.1.15,2013-08-24 11:04:00,
2013-08-24 07:09:00,47.4,47.1,30.28,NNW,327,0.0,0.0,99,0.00,,,0.00,Wunderground v.1.15,2013-08-24 11:09:00,
2013-08-24 07:14:00,47.6,47.1,30.28,NNW,327,0.0,0.0,98,0.00,,,0.00,Wunderground v.1.15,2013-08-24 11:14:00,
2013-08-24 07:19:00,47.9,47.4,30.28,NNW,327,0.0,0.0,98,0.00,,,0.00,Wunderground v.1.15,2013-08-24 11:19:00,
2013-08-24 07:24:00,48.0,47.5,30.28,NNW,327,0.0,0.0,98,0.00,,,0.00,Wunderground v.1.15,2013-08-24 11:24:00,
2013-08-24 07:29:00,48.3,47.8,30.29,NNW,327,0.0,0.0,98,0.00,,,0.00,Wunderground v.1.15,2013-08-24 11:29:00,
2013-08-24 07:34:00,48.6,48.1,30.29,NNW,327,0.0,0.0,98,0.00,,,0.00,Wunderground v.1.15,2013-08-24 11:34:00,
2013-08-24 07:39:00,49.1,48.8,30.29,NNW,327,0.0,0.0,99,0.00,,,0.00,Wunderground v.1.15,2013-08-24 11:39:00,
2013-08-24 07:44:00,49.4,49.1,30.29,NNW,327,0.0,0.0,99,0.00,,,0.00,Wunderground v.1.15,2013-08-24 11:44:00,
2013-08-24 07:49:00,49.6,49.1,30.29,NNW,327,0.0,0.0,98,0.00,,,0.00,Wunderground v.1.15,2013-08-24 11:49:00,
2013-08-24 07:54:00,49.9,49.4,30.29,NNW,327,0.0,0.0,98,0.00,,,0.00,Wunderground v.1.15,2013-08-24 11:54:00,
2013-08-24 08:01:00,50.5,50.0,30.30,NNW,327,0.0,0.0,98,0.00,,,0.00,Wunderground v.1.15,2013-08-24 12:01:00,
2013-08-24 08:06:00,51.1,50.6,30.30,NNW,327,0.0,0.0,98,0.00,,,0.00,Wunderground v.1.15,2013-08-24 12:06:00,
2013-08-24 08:12:00,51.7,50.9,30.30,NNW,327,0.0,0.0,97,0.00,,,0.00,Wunderground v.1.15,2013-08-24 12:12:00,
2013-08-24 08:17:00,52.0,51.2,30.30,NNW,327,0.0,0.0,97,0.00,,,0.00,Wunderground v.1.15,2013-08-24 12:17:00,
2013-08-24 08:22:00,52.6,51.2,30.30,NNW,327,0.0,0.0,95,0.00,,,0.00,Wunderground v.1.15,2013-08-24 12:22:00,
2013-08-24 08:27:00,52.9,51.2,30.30,NNW,327,0.0,0.0,94,0.00,,,0.00,Wunderground v.1.15,2013-08-24 12:27:00,
2013-08-24 08:32:00,53.2,51.5,30.30,NNW,327,0.0,0.0,94,0.00,,,0.00,Wunderground v.1.15,2013-08-24 12:32:00,
2013-08-24 08:37:00,53.5,51.5,30.30,NNW,327,0.0,0.0,93,0.00,,,0.00,Wunderground v.1.15,2013-08-24 12:37:00,
2013-08-24 08:43:00,53.9,51.6,30.30,NNW,327,0.0,0.0,92,0.00,,,0.00,Wunderground v.1.15,2013-08-24 12:43:00,
2013-08-24 08:48:00,54.2,51.6,30.30,NNW,327,0.0,0.0,91,0.00,,,0.00,Wunderground v.1.15,2013-08-24 12:48:00,
2013-08-24 08:53:00,54.7,52.1,30.30,NNW,327,0.0,0.0,91,0.00,,,0.00,Wunderground v.1.15,2013-08-24 12:53:00,
2013-08-24 08:58:00,55.3,52.4,30.30,NNW,327,0.0,0.0,90,0.00,,,0.00,Wunderground v.1.15,2013-08-24 12:58:00,
2013-08-24 09:03:00,55.7,52.5,30.30,NNW,327,0.0,0.0,89,0.00,,,0.00,Wunderground v.1.15,2013-08-24 13:03:00,
2013-08-24 09:08:00,56.5,52.7,30.30,NNW,327,0.0,0.0,87,0.00,,,0.00,Wunderground v.1.15,2013-08-24 13:08:00,
2013-08-24 09:13:00,57.0,51.6,30.31,NNW,327,0.0,0.0,82,0.00,,,0.00,Wunderground v.1.15,2013-08-24 13:13:00,
2013-08-24 09:18:00,57.6,52.5,30.31,NNW,327,0.0,0.0,83,0.00,,,0.00,Wunderground v.1.15,2013-08-24 13:18:00,
2013-08-24 09:23:00,58.3,53.2,30.31,NNW,327,0.0,0.0,83,0.00,,,0.00,Wunderground v.1.15,2013-08-24 13:23:00,
2013-08-24 09:28:00,59.0,51.8,30.31,NNW,327,0.0,0.0,77,0.00,,,0.00,Wunderground v.1.15,2013-08-24 13:28:00,
2013-08-24 09:33:00,59.3,52.4,30.31,NNW,327,0.0,0.0,78,0.00,,,0.00,Wunderground v.1.15,2013-08-24 13:33:00,
2013-08-24 09:38:00,59.5,54.3,30.31,NNW,330,0.0,0.0,83,0.00,,,0.00,Wunderground v.1.15,2013-08-24 13:38:00,
2013-08-24 09:43:00,59.8,54.6,30.31,NNW,330,0.0,0.0,83,0.00,,,0.00,Wunderground v.1.15,2013-08-24 13:43:00,
2013-08-24 09:48:00,60.9,54.0,30.31,NNW,330,0.0,0.0,78,0.00,,,0.00,Wunderground v.1.15,2013-08-24 13:48:00,
2013-08-24 09:53:00,61.3,53.3,30.31,NNW,330,0.0,0.0,75,0.00,,,0.00,Wunderground v.1.15,2013-08-24 13:53:00,
2013-08-24 09:58:00,61.8,54.2,30.31,North,355,0.0,1.0,76,0.00,,,0.00,Wunderground v.1.15,2013-08-24 13:58:00,
2013-08-24 10:03:00,62.3,52.8,30.31,North,355,0.0,1.0,71,0.00,,,0.00,Wunderground v.1.15,2013-08-24 14:03:00,
2013-08-24 10:08:00,62.6,53.1,30.31,North,359,1.0,2.0,71,0.00,,,0.00,Wunderground v.1.15,2013-08-24 14:08:00,
2013-08-24 10:13:00,62.7,52.0,30.30,North,358,0.0,2.0,68,0.00,,,0.00,Wunderground v.1.15,2013-08-24 14:13:00,
2013-08-24 10:18:00,63.4,51.8,30.30,North,359,1.0,1.0,66,0.00,,,0.00,Wunderground v.1.15,2013-08-24 14:18:00,
2013-08-24 10:23:00,63.7,51.3,30.30,North,359,1.0,1.0,64,0.00,,,0.00,Wunderground v.1.15,2013-08-24 14:23:00,
2013-08-24 10:28:00,64.0,50.7,30.30,North,359,0.0,1.0,62,0.00,,,0.00,Wunderground v.1.15,2013-08-24 14:28:00,
2013-08-24 10:33:00,64.3,50.1,30.30,North,359,0.0,0.0,60,0.00,,,0.00,Wunderground v.1.15,2013-08-24 14:33:00,
2013-08-24 10:38:00,64.8,50.1,30.30,North,358,0.0,1.0,59,0.00,,,0.00,Wunderground v.1.15,2013-08-24 14:38:00,
2013-08-24 10:43:00,65.5,51.2,30.30,North,358,0.0,0.0,60,0.00,,,0.00,Wunderground v.1.15,2013-08-24 14:43:00,
2013-08-24 10:48:00,65.8,48.2,30.30,North,358,0.0,1.0,53,0.00,,,0.00,Wunderground v.1.15,2013-08-24 14:48:00,
2013-08-24 10:53:00,66.4,50.7,30.30,North,358,0.0,0.0,57,0.00,,,0.00,Wunderground v.1.15,2013-08-24 14:53:00,
2013-08-24 10:58:00,67.4,51.2,30.30,North,358,0.0,0.0,56,0.00,,,0.00,Wunderground v.1.15,2013-08-24 14:58:00,
2013-08-24 11:03:00,68.1,52.3,30.30,North,358,0.0,0.0,57,0.00,,,0.00,Wunderground v.1.15,2013-08-24 15:03:00,
2013-08-24 11:08:00,68.4,52.6,30.30,North,358,0.0,0.0,57,0.00,,,0.00,Wunderground v.1.15,2013-08-24 15:08:00,
2013-08-24 11:13:00,67.9,51.6,30.30,North,358,0.0,0.0,56,0.00,,,0.00,Wunderground v.1.15,2013-08-24 15:13:00,
2013-08-24 11:18:00,68.4,50.1,30.30,North,358,0.0,1.0,52,0.00,,,0.00,Wunderground v.1.15,2013-08-24 15:18:00,
2013-08-24 11:23:00,69.4,52.5,30.30,North,358,0.0,0.0,55,0.00,,,0.00,Wunderground v.1.15,2013-08-24 15:23:00,
2013-08-24 11:28:00,70.9,51.3,30.29,North,358,0.0,1.0,50,0.00,,,0.00,Wunderground v.1.15,2013-08-24 15:28:00,
2013-08-24 11:33:00,69.9,47.0,30.29,East,84,0.0,0.0,44,0.00,,,0.00,Wunderground v.1.15,2013-08-24 15:33:00,
2013-08-24 11:38:00,71.1,54.1,30.29,East,84,1.0,1.0,55,0.00,,,0.00,Wunderground v.1.15,2013-08-24 15:38:00,
2013-08-24 11:43:00,72.1,55.0,30.29,East,84,0.0,0.0,55,0.00,,,0.00,Wunderground v.1.15,2013-08-24 15:43:00,
2013-08-24 11:48:00,73.3,54.6,30.29,East,84,0.0,1.0,52,0.00,,,0.00,Wunderground v.1.15,2013-08-24 15:48:00,
2013-08-24 11:54:00,73.0,50.4,30.29,East,84,1.0,1.0,45,0.00,,,0.00,Wunderground v.1.15,2013-08-24 15:54:00,
2013-08-24 11:59:00,73.7,53.9,30.29,East,84,0.0,1.0,50,0.00,,,0.00,Wunderground v.1.15,2013-08-24 15:59:00,
2013-08-24 12:04:00,74.7,55.4,30.29,WSW,239,0.0,0.0,51,0.00,,,0.00,Wunderground v.1.15,2013-08-24 16:04:00,
2013-08-24 12:09:00,74.7,55.4,30.29,WSW,239,1.0,2.0,51,0.00,,,0.00,Wunderground v.1.15,2013-08-24 16:09:00,
2013-08-24 12:14:00,74.6,50.6,30.29,WSW,239,0.0,0.0,43,0.00,,,0.00,Wunderground v.1.15,2013-08-24 16:14:00,
2013-08-24 12:19:00,74.0,51.3,30.29,WSW,239,1.0,2.0,45,0.00,,,0.00,Wunderground v.1.15,2013-08-24 16:19:00,
2013-08-24 12:24:00,74.0,45.3,30.29,SW,224,0.0,0.0,36,0.00,,,0.00,Wunderground v.1.15,2013-08-24 16:24:00,
2013-08-24 12:29:00,74.6,45.9,30.29,SW,220,0.0,2.0,36,0.00,,,0.00,Wunderground v.1.15,2013-08-24 16:29:00,
2013-08-24 12:34:00,74.2,48.3,30.29,SW,220,0.0,1.0,40,0.00,,,0.00,Wunderground v.1.15,2013-08-24 16:34:00,
2013-08-24 12:39:00,74.7,48.1,30.29,ENE,76,0.0,1.0,39,0.00,,,0.00,Wunderground v.1.15,2013-08-24 16:39:00,
2013-08-24 12:44:00,74.2,47.6,30.28,ENE,76,0.0,1.0,39,0.00,,,0.00,Wunderground v.1.15,2013-08-24 16:44:00,
2013-08-24 12:49:00,75.3,48.6,30.28,SSW,194,0.0,2.0,39,0.00,,,0.00,Wunderground v.1.15,2013-08-24 16:49:00,
2013-08-24 12:54:00,75.3,48.6,30.28,SSW,194,0.0,0.0,39,0.00,,,0.00,Wunderground v.1.15,2013-08-24 16:54:00,
2013-08-24 12:59:00,75.3,51.3,30.28,SSW,196,1.0,1.0,43,0.00,,,0.00,Wunderground v.1.15,2013-08-24 16:59:00,
2013-08-24 13:04:00,77.2,48.9,30.28,NNE,29,0.0,0.0,37,0.00,,,0.00,Wunderground v.1.15,2013-08-24 17:04:00,
2013-08-24 13:09:00,76.5,50.4,30.28,NNE,26,0.0,1.0,40,0.00,,,0.00,Wunderground v.1.15,2013-08-24 17:09:00,
2013-08-24 13:14:00,75.8,46.9,30.28,NNW,330,4.0,4.0,36,0.00,,,0.00,Wunderground v.1.15,2013-08-24 17:14:00,
2013-08-24 13:19:00,74.4,44.2,30.28,SE,124,0.0,4.0,34,0.00,,,0.00,Wunderground v.1.15,2013-08-24 17:19:00,
2013-08-24 13:24:00,78.6,52.3,30.28,NE,49,0.0,1.0,40,0.00,,,0.00,Wunderground v.1.15,2013-08-24 17:24:00,
2013-08-24 13:29:00,76.8,49.3,30.28,NE,49,0.0,1.0,38,0.00,,,0.00,Wunderground v.1.15,2013-08-24 17:29:00,
2013-08-24 13:34:00,76.3,50.9,30.28,NE,49,0.0,0.0,41,0.00,,,0.00,Wunderground v.1.15,2013-08-24 17:34:00,
2013-08-24 13:39:00,76.0,50.6,30.27,NE,50,1.0,1.0,41,0.00,,,0.00,Wunderground v.1.15,2013-08-24 17:39:00,
2013-08-24 13:44:00,77.2,54.2,30.27,NE,50,0.0,0.0,45,0.00,,,0.00,Wunderground v.1.15,2013-08-24 17:44:00,
2013-08-24 13:49:00,77.2,54.2,30.27,NE,50,1.0,1.0,45,0.00,,,0.00,Wunderground v.1.15,2013-08-24 17:49:00,
2013-08-24 13:54:00,77.0,52.8,30.27,NE,50,0.0,0.0,43,0.00,,,0.00,Wunderground v.1.15,2013-08-24 17:54:00,
2013-08-24 14:00:00,75.6,50.9,30.27,SE,126,0.0,1.0,42,0.00,,,0.00,Wunderground v.1.15,2013-08-24 18:00:00,
2013-08-24 14:05:00,76.5,51.0,30.27,SE,126,0.0,2.0,41,0.00,,,0.00,Wunderground v.1.15,2013-08-24 18:05:00,
2013-08-24 14:10:00,76.3,45.9,30.27,ESE,114,0.0,2.0,34,0.00,,,0.00,Wunderground v.1.15,2013-08-24 18:10:00,
2013-08-24 14:16:00,76.5,46.8,30.27,ESE,114,0.0,1.0,35,0.00,,,0.00,Wunderground v.1.15,2013-08-24 18:16:00,
2013-08-24 14:21:00,76.8,47.8,30.27,South,182,0.0,4.0,36,0.00,,,0.00,Wunderground v.1.15,2013-08-24 18:21:00,
2013-08-24 14:26:00,77.4,55.0,30.26,South,182,0.0,1.0,46,0.00,,,0.00,Wunderground v.1.15,2013-08-24 18:26:00,
2013-08-24 14:31:00,77.2,54.2,30.26,South,182,0.0,1.0,45,0.00,,,0.00,Wunderground v.1.15,2013-08-24 18:31:00,
2013-08-24 14:36:00,77.0,54.0,30.26,SSE,159,2.0,2.0,45,0.00,,,0.00,Wunderground v.1.15,2013-08-24 18:36:00,
2013-08-24 14:41:00,76.7,46.2,30.26,ESE,118,1.0,2.0,34,0.00,,,0.00,Wunderground v.1.15,2013-08-24 18:41:00,
2013-08-24 14:46:00,76.5,48.3,30.26,SE,145,0.0,1.0,37,0.00,,,0.00,Wunderground v.1.15,2013-08-24 18:46:00,
2013-08-24 14:51:00,77.2,49.6,30.26,SE,146,0.0,1.0,38,0.00,,,0.00,Wunderground v.1.15,2013-08-24 18:51:00,
2013-08-24 14:56:00,77.2,56.0,30.26,SE,146,0.0,0.0,48,0.00,,,0.00,Wunderground v.1.15,2013-08-24 18:56:00,
2013-08-24 15:01:00,76.7,56.7,30.26,SE,146,0.0,1.0,50,0.00,,,0.00,Wunderground v.1.15,2013-08-24 19:01:00,
2013-08-24 15:06:00,75.4,56.0,30.26,SE,136,2.0,2.0,51,0.00,,,0.00,Wunderground v.1.15,2013-08-24 19:06:00,
2013-08-24 15:11:00,75.1,49.8,30.26,South,169,0.0,4.0,41,0.00,,,0.00,Wunderground v.1.15,2013-08-24 19:11:00,
2013-08-24 15:16:00,74.9,51.5,30.26,South,169,0.0,0.0,44,0.00,,,0.00,Wunderground v.1.15,2013-08-24 19:16:00,
2013-08-24 15:21:00,74.9,46.1,30.26,SSE,165,0.0,1.0,36,0.00,,,0.00,Wunderground v.1.15,2013-08-24 19:21:00,
2013-08-24 15:26:00,75.4,50.7,30.26,SSE,165,0.0,0.0,42,0.00,,,0.00,Wunderground v.1.15,2013-08-24 19:26:00,
2013-08-24 15:31:00,75.3,47.2,30.26,SSE,165,0.0,1.0,37,0.00,,,0.00,Wunderground v.1.15,2013-08-24 19:31:00,
2013-08-24 15:36:00,74.2,52.7,30.26,SSE,165,0.0,0.0,47,0.00,,,0.00,Wunderground v.1.15,2013-08-24 19:36:00,
2013-08-24 15:41:00,74.2,50.3,30.26,SSE,165,0.0,1.0,43,0.00,,,0.00,Wunderground v.1.15,2013-08-24 19:41:00,
2013-08-24 15:46:00,74.7,50.1,30.26,ENE,64,0.0,1.0,42,0.00,,,0.00,Wunderground v.1.15,2013-08-24 19:46:00,
2013-08-24 15:51:00,75.3,53.7,30.26,ENE,63,0.0,1.0,47,0.00,,,0.00,Wunderground v.1.15,2013-08-24 19:51:00,
2013-08-24 15:56:00,75.3,50.6,30.26,ENE,59,1.0,1.0,42,0.00,,,0.00,Wunderground v.1.15,2013-08-24 19:56:00,
2013-08-24 16:02:00,74.9,50.9,30.26,NNE,15,0.0,2.0,43,0.00,,,0.00,Wunderground v.1.15,2013-08-24 20:02:00,
2013-08-24 16:07:00,74.4,52.9,30.26,NNE,15,0.0,1.0,47,0.00,,,0.00,Wunderground v.1.15,2013-08-24 20:07:00,
2013-08-24 16:12:00,73.9,54.6,30.26,NNE,15,0.0,1.0,51,0.00,,,0.00,Wunderground v.1.15,2013-08-24 20:12:00,
2013-08-24 16:17:00,73.7,53.3,30.26,NNE,15,0.0,0.0,49,0.00,,,0.00,Wunderground v.1.15,2013-08-24 20:17:00,
2013-08-24 16:22:00,73.7,49.8,30.26,SE,131,0.0,1.0,43,0.00,,,0.00,Wunderground v.1.15,2013-08-24 20:22:00,
2013-08-24 16:27:00,73.3,52.4,30.25,SE,131,0.0,0.0,48,0.00,,,0.00,Wunderground v.1.15,2013-08-24 20:27:00,
2013-08-24 16:33:00,73.0,51.0,30.25,SE,131,0.0,0.0,46,0.00,,,0.00,Wunderground v.1.15,2013-08-24 20:33:00,
2013-08-24 16:38:00,72.8,53.6,30.25,SE,131,0.0,1.0,51,0.00,,,0.00,Wunderground v.1.15,2013-08-24 20:38:00,
2013-08-24 16:43:00,73.0,54.3,30.25,SE,131,0.0,1.0,52,0.00,,,0.00,Wunderground v.1.15,2013-08-24 20:43:00,
2013-08-24 16:48:00,72.8,49.0,30.25,SE,132,0.0,1.0,43,0.00,,,0.00,Wunderground v.1.15,2013-08-24 20:48:00,
2013-08-24 16:53:00,73.3,54.1,30.25,SE,132,0.0,1.0,51,0.00,,,0.00,Wunderground v.1.15,2013-08-24 20:53:00,
2013-08-24 16:58:00,72.8,55.7,30.25,SE,132,0.0,1.0,55,0.00,,,0.00,Wunderground v.1.15,2013-08-24 20:58:00,
2013-08-24 17:03:00,72.5,53.9,30.25,SE,132,0.0,1.0,52,0.00,,,0.00,Wunderground v.1.15,2013-08-24 21:03:00,
2013-08-24 17:08:00,72.7,53.5,30.25,SE,132,0.0,0.0,51,0.00,,,0.00,Wunderground v.1.15,2013-08-24 21:08:00,
2013-08-24 17:13:00,72.3,53.7,30.25,SE,132,0.0,1.0,52,0.00,,,0.00,Wunderground v.1.15,2013-08-24 21:13:00,
2013-08-24 17:18:00,72.3,51.5,30.25,SE,132,0.0,0.0,48,0.00,,,0.00,Wunderground v.1.15,2013-08-24 21:18:00,
2013-08-24 17:23:00,72.1,55.5,30.25,SE,132,0.0,0.0,56,0.00,,,0.00,Wunderground v.1.15,2013-08-24 21:23:00,
2013-08-24 17:28:00,71.6,53.0,30.25,SE,132,0.0,0.0,52,0.00,,,0.00,Wunderground v.1.15,2013-08-24 21:28:00,
2013-08-24 17:33:00,71.8,51.6,30.25,SE,132,0.0,1.0,49,0.00,,,0.00,Wunderground v.1.15,2013-08-24 21:33:00,
2013-08-24 17:38:00,71.5,55.9,30.25,SE,132,0.0,0.0,58,0.00,,,0.00,Wunderground v.1.15,2013-08-24 21:38:00,
2013-08-24 17:43:00,70.9,55.4,30.25,SE,132,0.0,0.0,58,0.00,,,0.00,Wunderground v.1.15,2013-08-24 21:43:00,
2013-08-24 17:48:00,71.1,56.0,30.25,SE,132,0.0,0.0,59,0.00,,,0.00,Wunderground v.1.15,2013-08-24 21:48:00,
2013-08-24 17:53:00,70.4,54.9,30.25,SE,132,0.0,0.0,58,0.00,,,0.00,Wunderground v.1.15,2013-08-24 21:53:00,
2013-08-24 17:58:00,70.3,54.3,30.25,SE,132,0.0,0.0,57,0.00,,,0.00,Wunderground v.1.15,2013-08-24 21:58:00,
2013-08-24 18:03:00,70.1,56.0,30.25,SE,132,0.0,0.0,61,0.00,,,0.00,Wunderground v.1.15,2013-08-24 22:03:00,
2013-08-24 18:08:00,69.6,54.6,30.25,SE,132,0.0,0.0,59,0.00,,,0.00,Wunderground v.1.15,2013-08-24 22:08:00,
2013-08-24 18:13:00,69.4,55.4,30.25,SE,132,0.0,0.0,61,0.00,,,0.00,Wunderground v.1.15,2013-08-24 22:13:00,
2013-08-24 18:18:00,69.1,57.3,30.25,SE,132,0.0,0.0,66,0.00,,,0.00,Wunderground v.1.15,2013-08-24 22:18:00,
2013-08-24 18:23:00,68.8,56.1,30.25,SE,132,0.0,0.0,64,0.00,,,0.00,Wunderground v.1.15,2013-08-24 22:23:00,
2013-08-24 18:28:00,68.4,57.0,30.25,SE,132,0.0,0.0,67,0.00,,,0.00,Wunderground v.1.15,2013-08-24 22:28:00,
2013-08-24 18:33:00,68.1,56.7,30.25,SE,132,0.0,0.0,67,0.00,,,0.00,Wunderground v.1.15,2013-08-24 22:33:00,
2013-08-24 18:38:00,67.8,56.9,30.25,SE,132,0.0,0.0,68,0.00,,,0.00,Wunderground v.1.15,2013-08-24 22:38:00,
2013-08-24 18:43:00,67.3,56.8,30.25,SE,132,0.0,0.0,69,0.00,,,0.00,Wunderground v.1.15,2013-08-24 22:43:00,
2013-08-24 18:48:00,66.9,56.8,30.25,SE,132,0.0,0.0,70,0.00,,,0.00,Wunderground v.1.15,2013-08-24 22:48:00,
2013-08-24 18:53:00,66.6,57.7,30.25,SE,132,0.0,0.0,73,0.00,,,0.00,Wunderground v.1.15,2013-08-24 22:53:00,
2013-08-24 18:58:00,66.4,57.9,30.25,SE,132,0.0,0.0,74,0.00,,,0.00,Wunderground v.1.15,2013-08-24 22:58:00,
2013-08-24 19:03:00,66.1,56.4,30.25,SE,132,0.0,0.0,71,0.00,,,0.00,Wunderground v.1.15,2013-08-24 23:03:00,
2013-08-24 19:08:00,66.0,58.2,30.25,SE,132,0.0,0.0,76,0.00,,,0.00,Wunderground v.1.15,2013-08-24 23:08:00,
2013-08-24 19:13:00,65.5,58.1,30.25,SE,132,0.0,0.0,77,0.00,,,0.00,Wunderground v.1.15,2013-08-24 23:13:00,
2013-08-24 19:18:00,65.0,58.0,30.25,SE,132,0.0,0.0,78,0.00,,,0.00,Wunderground v.1.15,2013-08-24 23:18:00,
2013-08-24 19:23:00,64.7,58.0,30.25,SE,132,0.0,0.0,79,0.00,,,0.00,Wunderground v.1.15,2013-08-24 23:23:00,
2013-08-24 19:28:00,64.3,58.0,30.26,SE,132,0.0,0.0,80,0.00,,,0.00,Wunderground v.1.15,2013-08-24 23:28:00,
2013-08-24 19:33:00,63.9,57.6,30.26,SE,132,0.0,0.0,80,0.00,,,0.00,Wunderground v.1.15,2013-08-24 23:33:00,
2013-08-24 19:38:00,63.4,57.1,30.26,SE,132,0.0,0.0,80,0.00,,,0.00,Wunderground v.1.15,2013-08-24 23:38:00,
2013-08-24 19:43:00,63.1,57.2,30.27,SE,132,0.0,0.0,81,0.00,,,0.00,Wunderground v.1.15,2013-08-24 23:43:00,
2013-08-24 19:48:00,62.7,57.1,30.27,SE,132,0.0,0.0,82,0.00,,,0.00,Wunderground v.1.15,2013-08-24 23:48:00,
2013-08-24 19:53:00,62.4,57.2,30.27,SE,132,0.0,0.0,83,0.00,,,0.00,Wunderground v.1.15,2013-08-24 23:53:00,
2013-08-24 19:58:00,62.0,56.8,30.27,SE,132,0.0,0.0,83,0.00,,,0.00,Wunderground v.1.15,2013-08-24 23:58:00,
2013-08-24 20:03:00,61.5,56.6,30.27,SE,132,0.0,0.0,84,0.00,,,0.00,Wunderground v.1.15,2013-08-25 00:03:00,
2013-08-24 20:08:00,61.0,56.1,30.27,SE,132,0.0,0.0,84,0.00,,,0.00,Wunderground v.1.15,2013-08-25 00:08:00,
2013-08-24 20:13:00,60.7,55.8,30.27,SE,132,0.0,0.0,84,0.00,,,0.00,Wunderground v.1.15,2013-08-25 00:13:00,
2013-08-24 20:18:00,60.4,55.5,30.27,SE,132,0.0,0.0,84,0.00,,,0.00,Wunderground v.1.15,2013-08-25 00:18:00,
2013-08-24 20:23:00,60.1,55.2,30.27,SE,132,0.0,0.0,84,0.00,,,0.00,Wunderground v.1.15,2013-08-25 00:23:00,
2013-08-24 20:28:00,59.8,55.3,30.28,SE,132,0.0,0.0,85,0.00,,,0.00,Wunderground v.1.15,2013-08-25 00:28:00,
2013-08-24 20:33:00,59.3,55.1,30.28,SE,132,0.0,0.0,86,0.00,,,0.00,Wunderground v.1.15,2013-08-25 00:33:00,
2013-08-24 20:38:00,59.0,54.8,30.28,SE,132,0.0,0.0,86,0.00,,,0.00,Wunderground v.1.15,2013-08-25 00:38:00,
2013-08-24 20:43:00,58.6,54.1,30.29,SE,132,0.0,0.0,85,0.00,,,0.00,Wunderground v.1.15,2013-08-25 00:43:00,
2013-08-24 20:49:00,58.1,53.6,30.29,SE,132,0.0,0.0,85,0.00,,,0.00,Wunderground v.1.15,2013-08-25 00:49:00,
2013-08-24 20:54:00,58.0,53.8,30.29,SE,132,0.0,0.0,86,0.00,,,0.00,Wunderground v.1.15,2013-08-25 00:54:00,
2013-08-24 20:59:00,57.6,53.1,30.30,SE,132,0.0,0.0,85,0.00,,,0.00,Wunderground v.1.15,2013-08-25 00:59:00,
2013-08-24 21:04:00,57.5,53.3,30.30,SE,132,0.0,0.0,86,0.00,,,0.00,Wunderground v.1.15,2013-08-25 01:04:00,
2013-08-24 21:09:00,57.3,53.5,30.30,SE,132,0.0,0.0,87,0.00,,,0.00,Wunderground v.1.15,2013-08-25 01:09:00,
2013-08-24 21:15:00,57.3,53.1,30.30,SE,132,0.0,0.0,86,0.00,,,0.00,Wunderground v.1.15,2013-08-25 01:15:00,
2013-08-24 21:20:00,56.9,53.1,30.30,SE,132,0.0,0.0,87,0.00,,,0.00,Wunderground v.1.15,2013-08-25 01:20:00,
2013-08-24 21:26:00,56.7,53.2,30.30,SE,132,0.0,0.0,88,0.00,,,0.00,Wunderground v.1.15,2013-08-25 01:26:00,
2013-08-24 21:31:00,56.7,53.2,30.30,SE,132,0.0,0.0,88,0.00,,,0.00,Wunderground v.1.15,2013-08-25 01:31:00,
2013-08-24 21:36:00,56.9,53.4,30.30,SE,132,0.0,0.0,88,0.00,,,0.00,Wunderground v.1.15,2013-08-25 01:36:00,
2013-08-24 21:41:00,56.7,53.2,30.30,SE,132,0.0,0.0,88,0.00,,,0.00,Wunderground v.1.15,2013-08-25 01:41:00,
2013-08-24 21:46:00,56.6,53.1,30.30,SE,132,0.0,0.0,88,0.00,,,0.00,Wunderground v.1.15,2013-08-25 01:46:00,
2013-08-24 21:51:00,56.6,53.4,30.30,SE,132,0.0,0.0,89,0.00,,,0.00,Wunderground v.1.15,2013-08-25 01:51:00,
2013-08-24 21:56:00,56.5,53.3,30.31,SE,132,0.0,0.0,89,0.00,,,0.00,Wunderground v.1.15,2013-08-25 01:56:00,
2013-08-24 22:01:00,56.3,53.4,30.31,SE,132,0.0,0.0,90,0.00,,,0.00,Wunderground v.1.15,2013-08-25 02:01:00,
2013-08-24 22:06:00,56.0,53.1,30.31,SE,132,0.0,0.0,90,0.00,,,0.00,Wunderground v.1.15,2013-08-25 02:06:00,
2013-08-24 22:11:00,55.9,53.6,30.30,SE,132,0.0,0.0,92,0.00,,,0.00,Wunderground v.1.15,2013-08-25 02:11:00,
2013-08-24 22:16:00,55.7,53.4,30.30,SE,132,0.0,0.0,92,0.00,,,0.00,Wunderground v.1.15,2013-08-25 02:16:00,
2013-08-24 22:21:00,55.3,53.0,30.30,SE,132,0.0,0.0,92,0.00,,,0.00,Wunderground v.1.15,2013-08-25 02:21:00,
2013-08-24 22:26:00,55.3,53.3,30.31,SE,132,0.0,0.0,93,0.00,,,0.00,Wunderground v.1.15,2013-08-25 02:26:00,
2013-08-24 22:31:00,55.1,53.1,30.31,SE,132,0.0,0.0,93,0.00,,,0.00,Wunderground v.1.15,2013-08-25 02:31:00,
2013-08-24 22:36:00,55.0,53.0,30.31,SE,132,0.0,0.0,93,0.00,,,0.00,Wunderground v.1.15,2013-08-25 02:36:00,
2013-08-24 22:41:00,54.7,52.7,30.31,SE,132,0.0,0.0,93,0.00,,,0.00,Wunderground v.1.15,2013-08-25 02:41:00,
2013-08-24 22:46:00,54.5,52.5,30.31,SE,132,0.0,0.0,93,0.00,,,0.00,Wunderground v.1.15,2013-08-25 02:46:00,
2013-08-24 22:51:00,54.4,52.7,30.31,SE,132,0.0,0.0,94,0.00,,,0.00,Wunderground v.1.15,2013-08-25 02:51:00,
2013-08-24 22:56:00,54.4,52.7,30.31,SE,132,0.0,0.0,94,0.00,,,0.00,Wunderground v.1.15,2013-08-25 02:56:00,
2013-08-24 23:01:00,54.1,52.4,30.31,SE,132,0.0,0.0,94,0.00,,,0.00,Wunderground v.1.15,2013-08-25 03:01:00,
2013-08-24 23:06:00,53.8,52.1,30.31,SE,132,0.0,0.0,94,0.00,,,0.00,Wunderground v.1.15,2013-08-25 03:06:00,
2013-08-24 23:11:00,53.6,51.9,30.31,SE,132,0.0,0.0,94,0.00,,,0.00,Wunderground v.1.15,2013-08-25 03:11:00,
2013-08-24 23:16:00,53.3,51.6,30.31,SE,132,0.0,0.0,94,0.00,,,0.00,Wunderground v.1.15,2013-08-25 03:16:00,
2013-08-24 23:21:00,53.2,51.8,30.31,SE,132,0.0,0.0,95,0.00,,,0.00,Wunderground v.1.15,2013-08-25 03:21:00,
2013-08-24 23:26:00,53.2,51.8,30.31,SE,132,0.0,0.0,95,0.00,,,0.00,Wunderground v.1.15,2013-08-25 03:26:00,
2013-08-24 23:31:00,53.2,51.8,30.31,SE,132,0.0,0.0,95,0.00,,,0.00,Wunderground v.1.15,2013-08-25 03:31:00,
2013-08-24 23:37:00,53.1,51.7,30.31,SE,132,0.0,0.0,95,0.00,,,0.00,Wunderground v.1.15,2013-08-25 03:37:00,
2013-08-24 23:42:00,52.8,51.4,30.31,SE,132,0.0,0.0,95,0.00,,,0.00,Wunderground v.1.15,2013-08-25 03:42:00,
2013-08-24 23:47:00,52.8,51.4,30.31,SE,132,0.0,0.0,95,0.00,,,0.00,Wunderground v.1.15,2013-08-25 03:47:00,
2013-08-24 23:52:00,52.6,51.2,30.31,SE,132,0.0,0.0,95,0.00,,,0.00,Wunderground v.1.15,2013-08-25 03:52:00,
2013-08-24 23:57:00,52.5,51.1,30.32,SE,132,0.0,0.0,95,0.00,,,0.00,Wunderground v.1.15,2013-08-25 03:57:00,